Weather History for PGSN - August, 2013

Change the Weather History Date:

Sunday, August 18, 2013

  Actual Average Record
Temperature  
Mean Temperature 84 °F -  
Max Temperature 89 °F 84 °F 100 °F (1996)
Min Temperature 79 °F 76 °F 73 °F (2006)
Cooling Degree Days 19    
Growing Degree Days 34 (Base 50)    
Moisture  
Dew Point 74 °F    
Average Humidity 72    
Maximum Humidity 84    
Minimum Humidity 55    
Precipitation  
Precipitation 0.00 in - - ()
Sea Level Pressure  
Sea Level Pressure 29.91 in    
Wind  
Wind Speed 5 mph (East)    
Max Wind Speed 12 mph    
Max Gust Speed 16 mph    
Visibility 10 miles    
Events Rain    
Averages and records for this station are not official NWS values.
T = Trace of Precipitation, MM = Missing Value Source: NWS Daily Summary

Daily Weather History Graph

Daily Weather History Graph

Search for Another Location

Airport or City:

Trip Planner

Search our weather history database for the weather conditions in past years. The results will help you decide how hot, cold, wet, or windy it might be!

Date:

Astronomy

Aug. 18, 2013 Rise Set
Actual Time 6:03 AM ChST 6:38 PM ChST
Civil Twilight 5:40 AM ChST 7:00 PM ChST
Nautical Twilight 5:14 AM ChST 7:26 PM ChST
Astronomical Twilight 4:48 AM ChST 7:52 PM ChST
Moon 3:59 PM ChST (8/18) 2:44 AM ChST (8/18)
Length of Visible Light 13h 20m
Length of Day
12h 35m
Waxing Gibbous, 87% of the Moon is Illuminated
Aug 18
Waxing Gibbous
Aug 21
Full
Aug 28
Last Quarter
Sep 5
New
Sep 13
First Quarter

Hourly Weather History & Observations

Time (ChST) Temp. Heat Index Dew Point Humidity Pressure Visibility Wind Dir Wind Speed Gust Speed Precip Events Conditions
12:54 AM 82.0 °F 87.4 °F 73.0 °F 74% 29.91 in 10.0 mi Calm Calm - N/A   Clear
1:54 AM 82.0 °F 87.4 °F 73.0 °F 74% 29.90 in 10.0 mi Calm Calm - N/A   Clear
2:54 AM 81.0 °F 85.8 °F 73.0 °F 77% 29.88 in 10.0 mi ESE 3.5 mph - N/A   Clear
3:54 AM 79.0 °F - 73.9 °F 84% 29.89 in 10.0 mi Calm Calm - N/A   Clear
4:54 AM 81.0 °F 85.8 °F 73.0 °F 77% 29.90 in 10.0 mi ESE 3.5 mph - N/A   Clear
5:54 AM 80.1 °F 84.2 °F 73.0 °F 79% 29.91 in 10.0 mi ESE 3.5 mph - N/A   Clear
6:54 AM 82.0 °F 87.9 °F 73.9 °F 76% 29.93 in 10.0 mi ESE 3.5 mph - N/A   Partly Cloudy
7:54 AM 84.9 °F 92.1 °F 73.9 °F 69% 29.94 in 10.0 mi SE 5.8 mph - N/A   Scattered Clouds
8:54 AM 86.0 °F 93.8 °F 73.9 °F 67% 29.96 in 10.0 mi Variable 6.9 mph - N/A   Scattered Clouds
9:54 AM 86.0 °F 93.8 °F 73.9 °F 67% 29.96 in 10.0 mi SSE 8.1 mph - N/A   Scattered Clouds
10:54 AM 87.1 °F 96.3 °F 75.0 °F 67% 29.95 in 10.0 mi SSE 10.4 mph - N/A   Scattered Clouds
11:54 AM 87.1 °F 95.4 °F 73.9 °F 65% 29.93 in 10.0 mi SSE 11.5 mph - 0.00 in   Partly Cloudy
12:54 PM 89.1 °F 95.0 °F 71.1 °F 55% 29.90 in 10.0 mi ESE 9.2 mph 16.1 mph N/A   Partly Cloudy
1:54 PM 88.0 °F 95.6 °F 73.0 °F 61% 29.89 in 10.0 mi ENE 8.1 mph - N/A   Partly Cloudy
2:54 PM 87.1 °F 95.4 °F 73.9 °F 65% 29.88 in 10.0 mi ENE 9.2 mph - N/A   Scattered Clouds
3:54 PM 86.0 °F 93.8 °F 73.9 °F 67% 29.88 in 10.0 mi ENE 9.2 mph - N/A   Scattered Clouds
4:54 PM 86.0 °F 93.8 °F 73.9 °F 67% 29.88 in 10.0 mi NE 6.9 mph - N/A   Mostly Cloudy
5:54 PM 84.9 °F 92.1 °F 73.9 °F 69% 29.90 in 10.0 mi ENE 10.4 mph - N/A   Mostly Cloudy
6:54 PM 81.0 °F 86.2 °F 73.9 °F 79% 29.91 in 10.0 mi East 8.1 mph - N/A   Mostly Cloudy
7:54 PM 81.0 °F 86.7 °F 75.0 °F 82% 29.92 in 10.0 mi NE 5.8 mph - 0.00 in Rain Light Rain
8:54 PM 81.0 °F 86.7 °F 75.0 °F 82% 29.94 in 10.0 mi East 5.8 mph - 0.00 in   Mostly Cloudy
9:54 PM 81.0 °F 86.7 °F 75.0 °F 82% 29.94 in 10.0 mi ENE 8.1 mph - N/A   Mostly Cloudy
10:54 PM 82.9 °F 89.4 °F 73.9 °F 74% 29.94 in 10.0 mi East 8.1 mph - N/A   Mostly Cloudy
11:54 PM 82.0 °F 88.6 °F 75.0 °F 79% 29.92 in 10.0 mi East 6.9 mph - N/A   Mostly Cloudy